Regional Weather Roundup
Issued by NWS

Home | Current Version | Previous Version | Text Only | Print | Product List | Glossary On
Versions: 1 2 3 4 5 6 7 8 9 10 11 12 13 14 15 16 17 18 19 20 21 22 23 24 25 26 27 28 29 30 31 32 33 34 35 36 37 38 39 40 41 42 43 44 45 46 47 48 49 50
000
ASUS43 KMPX 010901
RWRMN
WEATHER ROUNDUP FOR MINNESOTA
NATIONAL WEATHER SERVICE TWIN CITIES/CHANHASSEN MN
300 AM CST SUN FEB 01 2015


NOTE: "FAIR" INDICATES FEW OR NO CLOUDS BELOW 12,000 FEET WITH NO
SIGNIFICANT WEATHER AND/OR OBSTRUCTIONS TO VISIBILITY. N/A MEANS
CURRENT SKY AND/OR WEATHER CONDITIONS ARE NOT AVAILABLE.

MNZ060>063-068>070-011000-
   Twin Cities Metro

CITY           SKY/WX    TMP DP  RH WIND       PRES   REMARKS
TWIN CITIES    LGT SNOW  17  10  74 NE16G23   30.20S WCI   2
ST PAUL        LGT SNOW  17  10  74 NE12G22   30.23R WCI   4
CRYSTAL        CLOUDY    18   6  59 NE15G22   30.20F WCI   4
BLAINE         CLOUDY    18   9  68 NE16      30.21F WCI   3
LAKEVILLE      LGT SNOW  16  12  86 NE14G22   30.16F WCI   1
EDEN PRAIRIE   LGT SNOW  17  11  77 NE14      30.18R WCI   3
SOUTH ST PAUL    N/A     18  11  76 NE13G18   30.20S HAZE    WCI   4
LAKE ELMO      CLOUDY    19  10  68 NE18G24   30.21F WCI   4
$$
MNZ001>005-007-008-013>017-022>024-027-028-011000-
   Northwest Minnesota

CITY           SKY/WX    TMP DP  RH WIND       PRES   REMARKS
BEMIDJI        MOCLDY    -8 -15  74 N7        30.41R WCI -23
HALLOCK        MOCLDY   -15 -22  70 N12       30.59S WCI -36
ROSEAU         PTCLDY   -15 -20  76 NW5       30.55R WCI -27
WARROAD        MOCLDY   -17 -24  70 W5        30.53R WCI -29
THIEF RVR FALL PTCLDY    -9 -15  77 N13       30.50R WCI -30
CROOKSTON      PTCLDY    -9 -15  77 N13G20    30.55R WCI -30
FOSSTON        PTCLDY    -9 -15  77 N13       30.45R WCI -30
DETROIT LAKES  PTCLDY     1  -8  66 NE10      30.37S WCI -14
MOORHEAD       PTCLDY     0  -9  65 MISG      30.45S
PARK RAPIDS    CLOUDY    -1 -10  65 N9        30.35R WCI -16
MAHNOMEN       FAIR      -4 -13  66 NE12      30.41S WCI -23
$$
MNZ006-009>011-018-025>026-011000-
   North Central Minnesota

CITY           SKY/WX    TMP DP  RH WIND       PRES   REMARKS
BAUDETTE       MOCLDY   -15 -21  74 NW3       30.49S
FLAG ISLAND    MOCLDY   -17 -24  70 NW10      30.52S WCI -37
INTL FALLS     MOCLDY   -18 -21  87 CALM      30.47R
WASKISH        MOCLDY   -15 -18  84 CALM      30.47S
BIG FORK       FAIR      -9 -17  70 N8        30.41F WCI -26
LONGVILLE      MOCLDY    -4 -11  71 N8        30.37R WCI -19
GRAND RAPIDS   MOCLDY    -6 -13  71 N5        30.35S WCI -17
CRANE LAKE     MOCLDY   -24 -29  76 CALM      30.49R
ORR            MOCLDY   -17 -22  76 CALM      30.40R
COOK           MOCLDY   -11 -17  77 NE5       30.41S WCI -23
WALKER         FAIR      -5 -13  67 NE6       30.39R WCI -17
$$
MNZ012-019>021-037-011000-
   Northeast Minnesota

CITY           SKY/WX    TMP DP  RH WIND       PRES   REMARKS
DULUTH         FLURRIES   0  -8  69 N9        30.29F WCI -15
ELY            MOCLDY   -11 -17  77 NE3       30.39F
HIBBING        CLOUDY    -5 -15  62 NE5       30.37S WCI -16
EVELETH        CLOUDY    -6 -13  71 NE9G16    30.37F WCI -22
DULUTH HARBOR  LGT SNOW  12   9  85 NE28      30.36F WCI  -9
TWO HARBORS    MOCLDY     5  -4  66 N8        30.33S WCI  -8
SILVER BAY     MOCLDY     0 -11  60 N6        30.36S WCI -12
GRAND MARAIS     N/A     -4 -17  53 N7        30.47R WCI -18
G MARAIS ARPRT MOCLDY   -11 -20  64 N12       30.31F WCI -31
$$
MNZ029>031-032-039>041-046>048-054>057-064-011000-
   West Central Minnesota

CITY           SKY/WX    TMP DP  RH WIND       PRES   REMARKS
FERGUS FALLS   MOCLDY     3  -8  60 NE13G20   30.38R WCI -14
WHEATON        MOCLDY     1  -4  78 N17G26    30.36R WCI -19
MORRIS         CLOUDY    10   0  61 N16       30.27R WCI  -7
ALEXANDRIA     CLOUDY     8  -2  63 NE13G22   30.25S WCI  -8
ELBOW LAKE     CLOUDY     5  -3  68 N13G22    30.30R WCI -11
WADENA         MOCLDY     0  -8  71 NE15      30.32R WCI -20
GLENWOOD       CLOUDY    10   0  61 NE21      30.24S WCI  -9
APPLETON       CLOUDY    16   3  57 N15       30.25R WCI   1
BENSON         CLOUDY    14   1  57 E10G17    30.23F WCI   1
ORTONVILLE     CLOUDY    10   0  61 N21       30.27S WCI  -9
MADISON        LGT SNOW  18  10  73 N16G26    30.23S WCI   3
WILLMAR        MOCLDY    16   3  57 NE18G32   30.20F WCI  -1
$$
MNZ033>034-036-042>043-049>051-058-059-011000-
   Central Minnesota

CITY           SKY/WX    TMP DP  RH WIND       PRES   REMARKS
ST CLOUD       CLOUDY    12   1  61 NE12      30.24F WCI  -2
SAUK CENTRE    FAIR       9  -1  62 N12G22    30.25S WCI  -6
PAYNESVILLE    CLOUDY    10   0  64 N15       30.22F WCI  -7
AITKIN         CLOUDY     3  -8  60 N7        30.33R WCI  -9
PINE RIVER     MOCLDY     0  -9  65 N10       30.37S WCI -17
BRAINERD       MOCLDY     2  -8  63 NE14      30.32S WCI -16
STAPLES        FAIR       1  -8  66 N9        30.31S WCI -14
LONG PRAIRIE   CLOUDY     9  -2  61 N12G20    30.27S WCI  -6
LITTLE FALLS   MOCLDY     9  -4  56 N3        30.29F
LITCHFIELD     CLOUDY    18   7  62 NE17      30.19F WCI   2
BUFFALO        CLOUDY    17   7  65 NE17G24   30.21F WCI   1
MAPLE LAKE     CLOUDY    17   8  67 N14       30.22F WCI   3
$$
MNZ037-044-045-052-053-011000-
   East Central Minnesota

CITY           SKY/WX    TMP DP  RH WIND       PRES   REMARKS
PRINCETON      CLOUDY    12   3  67 N13G23    30.25S WCI  -3
MORA           CLOUDY     9  -2  61 NE8       30.30S WCI  -4
CAMBRIDGE      CLOUDY    16   5  62 N10G16    30.24S WCI   3
RUSH CITY      CLOUDY    12   6  76 N12G18    30.27S WCI  -2
MOOSE LAKE     MOCLDY     5  -6  61 N9        30.31S WCI  -9
HINCKLEY       FAIR      10   1  67 N12       30.29S WCI  -4
CLOQUET        CLOUDY     0  -9  65 N6        30.31F WCI -12
MCGREGOR       MOCLDY     1  -8  66 N7        30.34S WCI -11
$$
MNZ071>073-080-081-089-090-097-098-011000-
   Southwest Minnesota

CITY           SKY/WX    TMP DP  RH WIND       PRES   REMARKS
MONTEVIDEO     CLOUDY    16   9  73 E16G25    30.22S WCI   0
GRANITE FALLS  LGT SNOW  16  13  88 N16G22    30.20F WCI   0
CANBY          LGT SNOW  14  11  87 N14G23    30.21S WCI   0
MARSHALL       CLOUDY    16  10  79 N17G24    30.16S WCI   0
REDWOOD FALLS  LGT SNOW  18  13  80 NE9G25    30.16F VSB 1   WCI   7
OLIVIA         CLOUDY    18  10  73 NE17G24   30.16F WCI   2
PIPESTONE      LGT SNOW  16  12  86 NE14G22   30.05S WCI   1
WINDOM         LGT SNOW  18  16  93 N22G29    30.05F WCI   0
WORTHINGTON    CLOUDY    30  12  47 NE26G35   30.03R WCI  16
JACKSON        LGT SNOW  21  19  93 NE24      30.01F WCI   4
TRACY          LGT SNOW  19  16  90 NE20G29   30.12F WCI   2
SLAYTON        LGT SNOW  17  15  91 N14       30.06S WCI   3
$$
MNZ065>067-074>077-082>085-091>093-011000-
   South Central Minnesota

CITY           SKY/WX    TMP DP  RH WIND       PRES   REMARKS
MANKATO        CLOUDY    18  12  79 NE23      30.10F WCI   0
NEW ULM        LGT SNOW  18  16  93 NE17G24   30.12F VSB 1   WCI   2
ST JAMES       LGT SNOW  21  18  86 N20G25    30.09F WCI   6
FAIRMONT       CLOUDY    21  16  79 NE18G30   30.02S WCI   6
GLENCOE        LGT SNOW  18  13  82 NE12G21   30.17S WCI   5
FARIBAULT      LGT SNOW  18  16  93 N16G23    30.12F WCI   3
OWATONNA       LGT SNOW  18  16  93 NE16G22   30.08F WCI   3
WASECA         LGT SNOW  19  18  93 NE24G32   30.08F WCI   2
ALBERT LEA     LGT SNOW  19  18  93 NE21G28   30.02F WCI   3
$$
MNZ078>079-086>088-094>096-011000-
   Southeast Minnesota

CITY           SKY/WX    TMP DP  RH WIND       PRES   REMARKS
ROCHESTER      LGT SNOW  19  16  88 NE21G28   30.06F VSB 1   WCI   3
RED WING       LGT SNOW  18  12  79 NE9       30.17F WCI   6
STANTON        LGT SNOW  19  15  86 NE16      30.14F WCI   4
DODGE CENTER   LGT SNOW  18  16  93 NE15G24   30.06F WCI   3
WINONA         LGT SNOW  23  19  86 NE10G16   30.15S WCI  12
AUSTIN         LGT SNOW  21  18  86 NE18G26   30.01F WCI   6
PRESTON        LGT SNOW  22  20  93 NE13G21   30.04F WCI  10
$$
ABBREVIATIONS USED IN REMARKS
   TC - TEMPERATURES IN CELSIUS
  WCI - WIND CHILL INDEX
   HX - HEAT INDEX
  VSB - VISIBILITY
$$



USA.gov is the U.S. government's official web portal to all federal, state and local government web resources and services.